Zurück zum Katalog

STARLINK-32498

AktivKommunikationVLEO
NORAD 61966·PAYLOAD·🇺🇸 United States

Gestartet Nov 14, 2024 von Cape Canaveral Space Force Station

Loading…

Nächste Überflüge (nächste 24 Stunden)

TLE

AktuellSource: CelesTrak SupGP

Epoche: Sep 14, 2026, 23:00 UTC

1 61966C 24210H   26257.95881944 -.00037799  00000+0 -13691-2 0  2572
2 61966  43.0006 176.2537 0001215 263.4288 176.7848 15.27595968    15

Verfolge STARLINK-32498 in Echtzeit mit AllMySat

Download on the App Store